Location: Newark
(44.3681°N, 100.3364°W)
Time: 21:59:57
(UTC+00:00)

SR - Visible Passes

Search period start: 25 February 2020 00:00
Search period end: 06 March 2020 00:00
Orbit: 575 x 880 km, 66.7° (Epoch: 25 February)

Date Brightness Start Highest point End Pass type
(mag) Time Alt. Az. Time Alt. Az. Time Alt. Az.
27 Feb ? 04:08:49 10° N 04:09:08 11° N 04:09:08 11° N visible
28 Feb ? 03:19:47 10° N 03:20:49 12° N 03:20:49 12° N visible
29 Feb ? 04:11:12 10° NNW 04:11:56 13° NNW 04:11:56 13° NNW visible
01 Mar ? 03:21:54 10° N 03:23:39 16° N 03:23:39 16° N visible
02 Mar ? 02:32:56 10° N 02:35:23 13° NNE 02:35:23 13° NNE visible
02 Mar ? 04:13:43 10° NNW 04:14:48 16° NNW 04:14:48 16° NNW visible
03 Mar ? 03:24:15 10° NNW 03:26:34 22° N 03:26:34 22° N visible
04 Mar ? 02:35:00 10° N 02:38:21 19° NNE 02:38:21 19° NNE visible
04 Mar ? 04:16:25 10° NNW 04:17:46 18° NW 04:17:46 18° NW visible
05 Mar ? 01:46:06 10° N 01:48:26 13° NNE 01:50:11 11° NE visible
05 Mar ? 03:26:46 10° NNW 03:29:36 30° N 03:29:36 30° N visible
